Flag for Germany Weather past 2 weeks in Laatzen, Lower Saxony, Germany

Now
35 °F

Passing clouds.


Feels Like: 30 °F
Forecast: 35 / 46 °F
Wind: 6 mph from Southwest

Location: Hannover

Current Time: Mar 4, 2015 at 8:01:23 AM

Latest Report: Mar 4, 2015 at 7:00 AM


Visibility: 13 mi

Pressure: 30.08 "Hg

Humidity: 84%

Dew point: 31 °F

Location of LaatzenLocation

Historic Weather in Laatzen — Graph

°F

Laatzen temperature yesterday

Maximum temperature yesterday: 44 °F (at 1:00 PM)
Minimum temperature yesterday: 36 °F (at 11:00 PM)
Average temperature yesterday: 39 °F

Past Weeks' High & Low Weather Summary

 TemperatureHumidityPressure
High49 °F (Mar 1, 1:00 PM)100% (Feb 18, 1:00 AM)30.74 "Hg (Feb 18, 1:00 AM)
Low27 °F (Feb 17, 7:00 AM)43% (Feb 28, 4:00 PM)29.32 "Hg (Feb 21, 7:00 AM)
Average39 °F78%29.90 "Hg
* Reported Feb 17 7:00 AM — Mar 4 7:00 AM, Laatzen, Weather by CustomWeather, © 2015

Note: Actual official high and low records may vary slightly from our data, if they occured in-between our weather recording intervals... More about our weather records

Advertising

Laatzen weather history for previous 24 hours

 ConditionsComfort  
Time TempWeatherWind HumidityBarometerVisibility
7:00 AM
Wed, Mar 4
35 °FPassing clouds.6 mph84%30.08 "Hg12 mi
6:00 AM35 °FPassing clouds.5 mph81%30.07 "Hg19 mi
5:00 AM35 °FPassing clouds.6 mph81%30.06 "Hg19 mi
3:00 AM37 °FSprinkles. Overcast.9 mph84%30.03 "Hg11 mi
2:00 AM36 °FOvercast.3 mph85%30.02 "Hg16 mi
1:00 AM36 °FPassing clouds.6 mph85%30.01 "Hg16 mi
12:00 AM36 °FPassing clouds.5 mph90%30.01 "Hg16 mi
11:00 PM
Tue, Mar 3
36 °FPassing clouds.5 mph90%29.98 "Hg19 mi
9:00 PM38 °FPassing clouds.6 mph88%29.94 "Hg22 mi
8:00 PM38 °FThunderstorms. Low clouds.7 mph89%29.92 "Hg12 mi
7:00 PM40 °FLight rain. Overcast.6 mph90%29.90 "Hg6 mi
6:00 PM40 °FLight rain. Overcast.6 mph90%29.90 "Hg6 mi
5:00 PM41 °FLight rain. Overcast.7 mph82%29.91 "Hg7 mi
4:00 PM42 °FLight rain. Overcast.7 mph77%29.92 "Hg9 mi
3:00 PM42 °FLight rain. Overcast.6 mph77%29.95 "Hg12 mi
2:00 PM44 °FOvercast.8 mph70%29.97 "Hg19 mi
1:00 PM44 °FOvercast.8 mph64%29.99 "Hg19 mi
12:00 PM43 °FPartly sunny.8 mph67%30.00 "Hg19 mi
11:00 AM41 °FPartly sunny.9 mph73%30.01 "Hg19 mi
10:00 AM39 °FPartly sunny.8 mph76%30.01 "Hg16 mi
9:00 AM38 °FScattered clouds.7 mph79%30.00 "Hg16 mi
8:00 AM37 °FPassing clouds.N/A79%29.98 "Hg16 mi
Weather by CustomWeather, © 2015

See weather overviewHow to use our weather pages